Date String (YYYY-MM-DD hh:mm:ss) UTC,Instrument flags,Ambient pressure (hPa),Sample flow (lpm),Bypass flow (lpm),Sample temperature (°C),Ambient temperature (°C),ASC tube jacket temperature (°C),LED temperature (°C),Box temperature (°C),Sample RH (%),Span deviation,Mass concentration (μg/m³),Mass concentration (μg/m³),Mass concentration (μg/m³)
DateTimeUTC,F1_M11,P_M11,Q1_M11,Q2_M11,T1_M11,T2_M11,T3_M11,T4_M11,T5_M11,U1_M11,ZSPAN_M11,X0_M11,X2_M11,X1_M11
2022-12-09 16:00:00,,0824.1,5.02,0.00,22.5,21.3,00.0,31.3,24.3,06.2,0000.0,0003.24,0001.26,0000.97
2022-12-09 16:01:00,,0824.1,5.00,0.00,22.5,21.3,00.0,31.3,24.3,06.2,0000.0,0003.11,0001.22,0000.98
2022-12-09 16:02:00,,0824.1,4.99,0.00,22.5,21.3,00.0,31.3,24.3,06.4,0000.0,0003.14,0001.24,0000.99
2022-12-09 16:03:00,,0824.1,4.99,0.00,22.5,21.3,00.0,31.3,24.3,06.6,0000.0,0003.16,0001.26,0001.00
2022-12-09 16:04:00,,0824.1,5.01,0.00,22.5,21.3,00.0,31.3,24.3,07.0,0000.0,0003.24,0001.31,0001.03
2022-12-09 16:05:00,,0824.1,5.01,0.00,22.5,21.3,00.0,31.3,24.4,07.6,0000.0,0003.33,0001.39,0001.08
2022-12-09 16:06:00,,0824.1,4.99,0.00,22.5,21.3,00.0,31.3,24.4,07.7,0000.0,0003.53,0001.50,0001.14
2022-12-09 16:07:00,,0824.1,4.98,0.00,22.5,21.3,00.0,31.3,24.4,07.8,0000.0,0002.54,0001.59,0001.20
2022-12-09 16:08:00,,0824.1,5.01,0.00,22.5,21.3,00.0,31.3,24.4,07.9,0000.0,0002.79,0001.71,0001.28
2022-12-09 16:09:00,,0824.0,5.03,0.00,22.5,21.3,00.0,31.3,24.4,07.8,0000.0,0003.66,0001.83,0001.36
2022-12-09 16:10:00,,0824.0,4.99,0.00,22.5,21.3,00.0,31.3,24.3,07.8,0000.0,0004.10,0001.95,0001.45
2022-12-09 16:11:00,,0824.0,4.99,0.00,22.5,21.3,00.0,31.3,24.3,07.8,0000.0,0005.34,0002.03,0001.52
2022-12-09 16:12:00,,0824.0,5.00,0.00,22.5,21.2,00.0,31.3,24.3,07.9,0000.0,0005.50,0002.13,0001.61
2022-12-09 16:13:00,,0824.0,5.03,0.00,22.5,21.2,00.0,31.3,24.3,08.0,0000.0,0005.73,0002.27,0001.71
2022-12-09 16:14:00,,0824.0,4.99,0.00,22.4,21.0,00.0,31.3,24.3,08.0,0000.0,0006.59,0002.39,0001.81
2022-12-09 16:15:00,,0824.1,4.99,0.00,22.4,21.0,00.0,31.3,24.2,08.1,0000.0,0006.81,0002.45,0001.86
2022-12-09 16:16:00,,0824.1,4.99,0.00,22.4,20.9,00.0,31.2,24.2,07.9,0000.0,0006.93,0002.51,0001.90
2022-12-09 16:17:00,,0824.1,5.01,0.00,22.4,20.8,00.0,31.2,24.2,07.7,0000.0,0007.18,0002.55,0001.96
2022-12-09 16:18:00,,0824.1,4.99,0.00,22.3,20.8,00.0,31.2,24.1,07.6,0000.0,0007.38,0002.61,0002.02
2022-12-09 16:19:00,,0824.1,4.98,0.00,22.3,20.7,00.0,31.2,24.1,07.4,0000.0,0007.38,0002.62,0002.05
2022-12-09 16:20:00,,0824.1,5.03,0.00,22.3,20.7,00.0,31.2,24.0,07.4,0000.0,0007.44,0002.68,0002.09
2022-12-09 16:21:00,,0824.1,4.99,0.00,22.3,20.8,00.0,31.2,24.1,07.5,0000.0,0006.96,0002.68,0002.11
2022-12-09 16:22:00,,0824.1,4.99,0.00,22.3,20.8,00.0,31.2,24.1,07.6,0000.0,0007.01,0002.72,0002.13
2022-12-09 16:23:00,,0824.1,5.00,0.00,22.2,20.9,00.0,31.2,24.1,07.5,0000.0,0006.03,0002.78,0002.13
2022-12-09 16:24:00,,0824.1,5.02,0.00,22.2,20.9,00.0,31.2,24.0,07.2,0000.0,0006.24,0002.83,0002.12
2022-12-09 16:25:00,,0824.1,5.00,0.00,22.2,20.9,00.0,31.2,24.0,07.2,0000.0,0006.28,0002.80,0002.10
2022-12-09 16:26:00,,0824.0,4.99,0.00,22.2,20.9,00.0,31.1,24.1,07.1,0000.0,0005.66,0002.74,0002.08
2022-12-09 16:27:00,,0824.0,4.99,0.00,22.3,21.0,00.0,31.1,24.1,07.0,0000.0,0005.78,0002.66,0002.04
2022-12-09 16:28:00,,0824.0,5.02,0.00,22.3,21.0,00.0,31.1,24.1,07.1,0000.0,0005.87,0002.61,0001.99
2022-12-09 16:29:00,,0824.0,5.00,0.00,22.3,21.0,00.0,31.1,24.1,07.1,0000.0,0005.66,0002.56,0001.96
2022-12-09 16:30:00,,0824.0,4.99,0.00,22.3,21.0,00.0,31.1,24.1,07.1,0000.0,0005.84,0002.53,0001.94
2022-12-09 16:31:00,,0824.0,4.99,0.00,22.3,21.0,00.0,31.1,24.1,07.2,0000.0,0005.87,0002.47,0001.92
2022-12-09 16:32:00,,0824.0,5.03,0.00,22.3,21.0,00.0,31.1,24.1,07.3,0000.0,0005.71,0002.43,0001.91
2022-12-09 16:33:00,,0824.0,5.00,0.00,22.3,21.0,00.0,31.1,24.1,07.3,0000.0,0005.81,0002.44,0001.90
2022-12-09 16:34:00,,0823.9,4.99,0.00,22.3,21.0,00.0,31.1,24.1,07.2,0000.0,0005.86,0002.43,0001.90
2022-12-09 16:35:00,,0823.9,4.99,0.00,22.3,21.0,00.0,31.1,24.1,07.0,0000.0,0006.46,0002.43,0001.91
2022-12-09 16:36:00,,0823.9,5.01,0.00,22.3,21.1,00.0,31.1,24.1,07.0,0000.0,0006.93,0002.44,0001.91
2022-12-09 16:37:00,,0824.0,5.02,0.00,22.3,21.1,00.0,31.1,24.1,06.9,0000.0,0007.38,0002.51,0001.90
2022-12-09 16:38:00,,0823.9,4.98,0.00,22.3,21.0,00.0,31.1,24.1,06.6,0000.0,0008.09,0002.57,0001.91
2022-12-09 16:39:00,,0823.9,4.98,0.00,22.3,20.9,00.0,31.1,24.1,06.6,0000.0,0007.96,0002.62,0001.92
2022-12-09 16:40:00,,0823.9,5.03,0.00,22.2,20.6,00.0,31.1,24.0,06.5,0000.0,0007.99,0002.63,0001.92
2022-12-09 16:41:00,,0823.8,4.99,0.00,22.2,20.3,00.0,31.1,24.0,06.1,0000.0,0007.94,0002.61,0001.90
2022-12-09 16:42:00,,0823.9,4.99,0.00,22.2,20.3,00.0,31.1,24.0,06.1,0000.0,0007.98,0002.57,0001.86
2022-12-09 16:43:00,,0823.9,5.03,0.00,22.2,20.5,00.0,31.1,24.0,06.2,0000.0,0007.98,0002.55,0001.83
2022-12-09 16:44:00,,0823.9,4.98,0.00,22.2,20.6,00.0,31.1,24.1,06.2,0000.0,0007.77,0002.46,0001.80
2022-12-09 16:45:00,,0823.9,4.98,0.00,22.2,20.7,00.0,31.1,24.1,06.4,0000.0,0007.52,0002.37,0001.77
2022-12-09 16:46:00,,0823.8,5.03,0.00,22.2,20.6,00.0,31.1,24.1,06.2,0000.0,0007.00,0002.30,0001.72
2022-12-09 16:47:00,,0823.7,4.99,0.00,22.2,20.7,00.0,31.1,24.1,06.0,0000.0,0006.42,0002.23,0001.68
2022-12-09 16:48:00,,0823.7,4.97,0.00,22.2,20.9,00.0,31.1,24.2,05.8,0000.0,0005.61,0002.11,0001.63
2022-12-09 16:49:00,,0823.8,5.01,0.00,22.2,21.1,00.0,31.1,24.2,05.8,0000.0,0004.05,0002.01,0001.56
2022-12-09 16:50:00,,0823.8,5.02,0.00,22.3,21.3,00.0,31.1,24.3,05.8,0000.0,0003.79,0001.94,0001.51
2022-12-09 16:51:00,,0823.8,5.00,0.00,22.3,21.4,00.0,31.1,24.3,05.6,0000.0,0003.53,0001.85,0001.45
2022-12-09 16:52:00,,0823.7,4.99,0.00,22.3,21.5,00.0,31.1,24.3,05.5,0000.0,0003.37,0001.78,0001.40
2022-12-09 16:53:00,,0823.7,4.99,0.00,22.4,21.6,00.0,31.1,24.4,05.3,0000.0,0002.99,0001.74,0001.35
2022-12-09 16:54:00,,0823.7,5.03,0.00,22.4,21.6,00.0,31.1,24.4,05.6,0000.0,0003.20,0001.67,0001.28
2022-12-09 16:55:00,,0823.7,5.03,0.00,22.4,21.7,00.0,31.2,24.5,05.6,0000.0,0003.70,0001.69,0001.23
2022-12-09 16:56:00,,0823.8,5.01,0.00,22.5,21.7,00.0,31.2,24.5,05.7,0000.0,0003.66,0001.65,0001.19
2022-12-09 16:57:00,,0823.7,4.98,0.00,22.5,21.8,00.0,31.2,24.5,05.7,0000.0,0003.33,0001.57,0001.14
2022-12-09 16:58:00,,0823.7,4.98,0.00,22.5,21.8,00.0,31.2,24.5,05.8,0000.0,0003.26,0001.55,0001.13
2022-12-09 16:59:00,,0823.7,5.00,0.00,22.6,21.8,00.0,31.2,24.5,05.8,0000.0,0003.56,0001.60,0001.12
